Date String (YYYY-MM-DD hh:mm:ss) UTC,Instrument flags,absolute air pressure of the measurement (hPa),sample flow rate (lpm),inlet stack bypass flow (lpm),air temperature of the measurement (°C),ambient temperature measured by the external sensor (°C),aerosol sample conditioner tube jacket temperature (°C),OPC LED temperature (°C),internal box temperature (°C),relative humidity of the measurement (%),span deviation,mass concentration of particles derived from Lorenz-Mie calculation of OPC scattering (μg/m³),mass concentration of particles derived from Lorenz-Mie calculation of OPC scattering (μg/m³),mass concentration of particles derived from Lorenz-Mie calculation of OPC scattering (μg/m³)
DateTimeUTC,F1_M11,P_M11,Q1_M11,Q2_M11,T1_M11,T2_M11,T3_M11,T4_M11,T5_M11,U1_M11,ZSPAN_M11,X0_M11,X2_M11,X1_M11
2024-01-03 08:00:00,SystemResetWarning,0829.6,5.00,000.00,021.0,019.8,000.0,029.3,022.3,12.5,0000.0,0011.38,0005.65,0005.19
2024-01-03 08:01:00,SystemResetWarning,0829.6,5.00,000.00,021.0,019.8,000.0,029.3,022.3,12.5,0000.0,0011.41,0005.68,0005.21
2024-01-03 08:02:00,SystemResetWarning,0829.6,5.01,000.00,021.0,019.8,000.0,029.3,022.3,12.6,0000.0,0011.54,0005.70,0005.23
2024-01-03 08:03:00,SystemResetWarning,0829.5,5.00,000.00,020.9,019.8,000.0,029.3,022.3,12.7,0000.0,0012.56,0005.73,0005.25
2024-01-03 08:04:00,SystemResetWarning,0829.5,5.00,000.00,020.9,019.8,000.0,029.3,022.3,12.7,0000.0,0013.71,0005.76,0005.27
2024-01-03 08:05:00,SystemResetWarning,0829.5,4.99,000.00,020.9,019.8,000.0,029.3,022.2,12.7,0003.1,0014.35,0005.76,0005.28
2024-01-03 08:06:00,SystemResetWarning,0829.4,5.00,000.00,020.9,019.8,000.0,029.3,022.2,12.7,0005.3,0015.12,0005.75,0005.29
2024-01-03 08:07:00,SystemResetWarning,0829.4,5.00,000.00,020.9,019.8,000.0,029.3,022.2,12.7,0005.1,0014.89,0005.74,0005.23
2024-01-03 08:08:00,SystemResetWarning,0829.4,5.00,000.00,020.9,019.8,000.0,029.3,022.2,12.7,0004.0,0014.50,0005.67,0005.14
2024-01-03 08:09:00,SystemResetWarning,0829.4,4.99,000.00,020.9,019.7,000.0,029.3,022.2,12.7,0000.0,0014.08,0005.55,0005.04
2024-01-03 08:10:00,SystemResetWarning,0829.4,5.00,000.00,020.9,019.7,000.0,029.3,022.2,12.7,0000.0,0013.88,0005.45,0004.94
2024-01-03 08:11:00,SystemResetWarning,0829.4,5.00,000.00,020.9,019.7,000.0,029.3,022.2,12.7,0000.0,0014.26,0005.37,0004.84
2024-01-03 08:12:00,SystemResetWarning,0829.4,5.01,000.00,020.9,019.7,000.0,029.3,022.2,12.7,0000.0,0014.06,0005.25,0004.74
2024-01-03 08:13:00,SystemResetWarning,0829.4,5.01,000.00,020.9,019.7,000.0,029.3,022.2,12.8,0000.4,0013.98,0005.15,0004.65
2024-01-03 08:14:00,SystemResetWarning,0829.5,5.00,000.00,020.9,019.7,000.0,029.2,022.2,12.6,0005.0,0012.99,0005.03,0004.58
2024-01-03 08:15:00,SystemResetWarning,0829.5,5.00,000.00,020.8,019.7,000.0,029.2,022.1,12.7,0005.1,0012.22,0004.96,0004.54
2024-01-03 08:16:00,SystemResetWarning,0829.6,5.00,000.00,020.8,019.7,000.0,029.2,022.1,12.9,0004.3,0010.82,0004.93,0004.52
2024-01-03 08:17:00,SystemResetWarning,0829.5,4.99,000.00,020.8,019.7,000.0,029.2,022.1,12.9,0000.0,0010.03,0004.92,0004.50
2024-01-03 08:18:00,SystemResetWarning,0829.6,5.00,000.00,020.8,019.6,000.0,029.2,022.1,12.9,0000.0,0010.32,0004.90,0004.50
2024-01-03 08:19:00,SystemResetWarning,0829.5,5.01,000.00,020.8,019.6,000.0,029.2,022.1,12.7,0000.0,0010.22,0004.91,0004.55
2024-01-03 08:20:00,SystemResetWarning,0829.5,5.00,000.00,020.8,019.6,000.0,029.2,022.1,12.7,0000.0,0010.29,0004.96,0004.59
2024-01-03 08:21:00,SystemResetWarning,0829.5,5.01,000.00,020.8,019.6,000.0,029.2,022.1,12.7,0000.0,0010.66,0005.02,0004.63
2024-01-03 08:22:00,SystemResetWarning,0829.5,4.99,000.00,020.8,019.6,000.0,029.2,022.1,12.8,0000.0,0010.57,0005.03,0004.65
2024-01-03 08:23:00,SystemResetWarning,0829.5,4.99,000.00,020.8,019.6,000.0,029.2,022.1,12.9,0000.0,0010.54,0005.08,0004.69
2024-01-03 08:24:00,SystemResetWarning,0829.5,5.00,000.00,020.8,019.6,000.0,029.2,022.1,12.9,0000.0,0010.74,0005.13,0004.71
2024-01-03 08:25:00,SystemResetWarning,0829.4,5.01,000.00,020.8,019.6,000.0,029.2,022.1,13.0,0000.0,0011.06,0005.19,0004.73
2024-01-03 08:26:00,SystemResetWarning,0829.5,5.01,000.00,020.7,019.6,000.0,029.2,022.1,13.1,0000.0,0010.60,0005.20,0004.73
2024-01-03 08:27:00,SystemResetWarning,0829.4,5.00,000.00,020.7,019.6,000.0,029.2,022.1,13.2,0000.0,0010.53,0005.19,0004.73
2024-01-03 08:28:00,SystemResetWarning,0829.4,5.00,000.00,020.7,019.6,000.0,029.1,022.1,13.3,0000.9,0010.15,0005.21,0004.76
2024-01-03 08:29:00,SystemResetWarning,0829.4,5.00,000.00,020.7,019.7,000.0,029.1,022.1,13.4,0003.6,0010.42,0005.27,0004.81
2024-01-03 08:30:00,SystemResetWarning,0829.4,5.00,000.00,020.8,019.7,000.0,029.1,022.1,13.4,0003.0,0011.36,0005.32,0004.83
2024-01-03 08:31:00,SystemResetWarning,0829.4,5.00,000.00,020.8,019.7,000.0,029.1,022.1,13.4,0004.8,0011.95,0005.32,0004.83
2024-01-03 08:32:00,SystemResetWarning,0829.4,5.00,000.00,020.8,019.7,000.0,029.1,022.1,13.4,0003.0,0011.67,0005.28,0004.82
2024-01-03 08:33:00,SystemResetWarning,0829.4,5.00,000.00,020.8,019.7,000.0,029.1,022.1,13.4,0004.9,0011.29,0005.30,0004.84
2024-01-03 08:34:00,SystemResetWarning,0829.4,4.99,000.00,020.8,019.7,000.0,029.1,022.1,13.4,0004.8,0011.44,0005.30,0004.84
2024-01-03 08:35:00,SystemResetWarning,0829.4,5.00,000.00,020.7,019.7,000.0,029.1,022.1,13.5,0004.5,0011.53,0005.30,0004.86
2024-01-03 08:36:00,SystemResetWarning,0829.4,5.00,000.00,020.7,019.7,000.0,029.1,022.1,13.6,0005.1,0011.12,0005.32,0004.88
2024-01-03 08:37:00,SystemResetWarning,0829.4,5.00,000.00,020.7,019.7,000.0,029.1,022.1,13.6,0005.0,0011.31,0005.39,0004.91
2024-01-03 08:38:00,SystemResetWarning,0829.4,5.00,000.00,020.7,019.7,000.0,029.1,022.1,13.6,0004.8,0011.96,0005.49,0004.97
2024-01-03 08:39:00,SystemResetWarning,0829.4,5.00,000.00,020.7,019.7,000.0,029.1,022.1,13.7,0004.6,0012.06,0005.52,0005.02
2024-01-03 08:40:00,SystemResetWarning,0829.4,5.01,000.00,020.7,019.6,000.0,029.1,022.1,13.7,0004.6,0011.78,0005.56,0005.05
2024-01-03 08:41:00,SystemResetWarning,0829.5,5.01,000.00,020.7,019.6,000.0,029.1,022.0,13.7,0004.5,0011.21,0005.67,0005.13
2024-01-03 08:42:00,SystemResetWarning,0829.4,5.01,000.00,020.7,019.6,000.0,029.1,022.0,13.7,0004.4,0011.15,0005.82,0005.25
2024-01-03 08:43:00,SystemResetWarning,0829.4,5.00,000.00,020.7,019.6,000.0,029.1,022.0,13.7,0004.5,0011.79,0005.96,0005.37
2024-01-03 08:44:00,SystemResetWarning,0829.5,5.00,000.00,020.7,019.5,000.0,029.0,022.0,13.8,0004.6,0012.02,0006.07,0005.48
2024-01-03 08:45:00,SystemResetWarning,0829.5,5.00,000.00,020.7,019.5,000.0,029.0,022.0,13.8,0002.8,0012.28,0006.17,0005.57
2024-01-03 08:46:00,SystemResetWarning,0829.4,4.99,000.00,020.7,019.5,000.0,029.0,022.0,13.4,0000.4,0012.09,0006.25,0005.65
2024-01-03 08:47:00,SystemResetWarning,0829.5,5.00,000.00,020.7,019.5,000.0,029.0,021.9,13.7,0004.2,0012.57,0006.38,0005.76
2024-01-03 08:48:00,SystemResetWarning,0829.4,5.00,000.00,020.7,019.4,000.0,029.0,021.9,13.8,0004.4,0012.55,0006.47,0005.86
2024-01-03 08:49:00,SystemResetWarning,0829.5,5.00,000.00,020.6,019.4,000.0,029.0,021.9,13.9,0004.8,0012.62,0006.58,0005.95
2024-01-03 08:50:00,SystemResetWarning,0829.4,5.01,000.00,020.6,019.4,000.0,029.0,021.9,13.9,0005.1,0013.26,0006.70,0006.04
2024-01-03 08:51:00,SystemResetWarning,0829.5,5.01,000.00,020.6,019.4,000.0,029.0,021.9,13.7,0001.7,0013.43,0006.75,0006.11
2024-01-03 08:52:00,SystemResetWarning,0829.5,5.01,000.00,020.6,019.4,000.0,029.0,021.9,13.7,0001.0,0013.72,0006.77,0006.12
2024-01-03 08:53:00,SystemResetWarning,0829.5,4.99,000.00,020.6,019.4,000.0,029.0,021.9,13.8,0003.2,0013.99,0006.80,0006.14
2024-01-03 08:54:00,SystemResetWarning,0829.4,4.99,000.00,020.6,019.4,000.0,029.0,021.9,13.9,0003.3,0013.80,0006.85,0006.17
2024-01-03 08:55:00,SystemResetWarning,0829.5,5.00,000.00,020.6,019.4,000.0,029.0,021.8,14.0,0003.3,0013.90,0006.90,0006.20
2024-01-03 08:56:00,SystemResetWarning,0829.5,5.00,000.00,020.6,019.4,000.0,028.9,021.8,14.0,0005.1,0014.21,0006.93,0006.25
2024-01-03 08:57:00,SystemResetWarning,0829.4,5.01,000.00,020.6,019.4,000.0,028.9,021.9,14.1,0005.5,0014.85,0006.99,0006.28
2024-01-03 08:58:00,SystemResetWarning,0829.4,5.01,000.00,020.5,019.4,000.0,028.9,021.9,14.2,0005.5,0014.55,0006.91,0006.22
2024-01-03 08:59:00,SystemResetWarning,0829.5,5.00,000.00,020.5,019.4,000.0,028.9,021.9,14.2,0005.5,0014.48,0006.87,0006.19
